Theta_e
306 306 307 307 307 307 308 308 308 308 308 309 309 309 309 309 309 309 311 315 317 317 317 325 323 327 328 328 328 330 327 328 328 328 327 328 325 328 326 326 327 327 327 327 327
309 308 307 306 305 305 305 306 307 308 308 308 308 308 308 309 309 311 320 315 315 314 316 321 325 327 328 329 330 329 328 331 329 327 326 327 326 327 324 324 325 325 326 325 327
305 305 306 308 309 308 306 304 304 305 306 307 307 308 308 308 308 316 315 315 315 314 316 315 325 326 327 328 329 329 330 329 329 329 328 327 327 328 324 323 325 325 326 325 326
304 304 304 304 305 306 308 309 308 306 304 304 305 307 307 307 307 314 316 316 317 317 315 316 318 327 327 327 328 328 329 330 330 329 328 327 328 327 326 326 326 325 326 326 326
297 299 301 301 301 302 304 305 306 309 309 306 304 304 305 306 308 318 317 317 315 318 316 317 318 319 322 328 328 328 329 329 329 328 328 328 327 326 326 328 328 325 325 325 325
301 298 296 296 299 300 302 301 304 305 306 308 308 304 302 305 310 313 312 311 312 315 317 317 318 319 318 322 324 329 329 329 329 329 328 328 328 326 327 328 327 326 325 325 324
303 303 302 300 298 299 301 303 301 303 306 306 308 307 307 305 309 310 310 311 311 311 316 316 317 318 319 317 321 322 325 327 327 326 324 326 325 325 327 327 327 325 325 324 324
305 304 303 303 302 301 300 299 299 300 303 306 307 308 310 310 308 308 310 313 313 314 318 317 318 317 318 319 319 320 320 321 322 323 324 324 326 325 327 327 326 326 325 325 324
303 303 303 303 303 302 302 302 301 299 301 307 308 308 308 308 310 314 310 310 314 315 317 319 320 317 318 317 317 318 321 321 322 323 325 324 326 326 326 325 325 327 327 326 326
301 302 302 302 303 303 302 302 302 300 303 308 310 310 307 309 310 312 312 309 310 315 314 319 321 315 314 315 319 320 320 322 323 324 324 324 325 325 325 325 325 326 327 327 327
302 302 302 302 302 303 303 305 312 313 310 311 309 309 314 314 313 315 313 310 311 314 314 319 319 317 318 318 320 321 321 322 323 324 325 325 325 326 325 325 324 325 327 327 327
302 302 302 302 303 302 308 308 310 307 307 308 311 311 310 311 310 313 314 313 312 314 314 317 316 316 319 320 319 319 322 322 322 323 323 323 324 325 325 324 324 325 326 326 326
302 302 302 303 304 304 309 310 310 308 307 310 311 312 312 311 312 312 314 315 313 313 314 315 319 319 318 318 320 319 320 323 323 323 323 323 324 324 326 325 326 326 326 325 326
303 302 303 304 304 305 308 310 310 309 308 310 311 312 313 313 315 312 314 316 315 313 315 314 316 319 317 317 319 320 321 323 325 325 324 323 325 322 324 324 323 324 325 326 326
302 303 303 304 305 304 303 308 310 309 303 307 309 311 313 314 317 315 314 314 315 314 315 315 315 315 316 316 319 321 321 322 324 325 322 323 322 321 322 324 324 322 324 326 326
302 303 304 304 304 304 305 308 310 308 308 307 312 312 313 314 316 318 316 315 316 315 314 314 316 315 315 317 319 321 321 321 322 323 324 324 323 325 323 324 324 322 325 325 324
302 302 303 304 304 304 304 307 310 311 308 310 309 308 309 316 316 318 316 314 315 315 315 315 314 315 316 316 317 320 320 322 321 323 326 322 324 324 323 323 323 320 324 324 324
301 302 303 302 303 304 305 309 312 307 307 308 309 309 312 314 316 317 317 315 314 314 315 315 316 315 316 316 316 316 316 323 324 324 323 323 324 323 322 323 325 323 324 325 325
301 302 302 304 304 305 305 308 306 306 307 308 308 309 310 310 311 316 317 315 315 314 315 315 316 318 317 317 316 316 318 318 321 322 322 322 323 325 323 322 324 325 326 326 326
302 303 303 304 305 305 305 306 306 306 307 307 308 309 309 309 312 313 317 318 316 316 314 316 317 318 317 317 316 316 318 320 318 323 324 323 325 324 323 323 326 325 324 326 326
302 304 304 306 305 305 305 303 305 305 306 308 308 307 308 310 311 313 314 317 317 316 315 315 317 319 318 316 316 315 317 320 320 319 323 322 322 320 321 320 327 325 326 327 327
301 302 305 306 304 304 304 304 304 305 306 306 307 307 308 309 310 312 314 316 314 313 317 315 314 317 318 318 317 316 316 320 322 321 320 320 322 322 321 321 326 325 327 327 327
301 303 304 304 302 305 303 304 305 305 306 307 307 307 308 309 309 313 315 314 314 313 315 316 316 318 322 318 319 317 319 319 317 318 322 322 321 324 325 326 327 326 326 327 327
302 300 304 303 303 304 305 305 305 304 304 305 306 307 308 310 309 311 312 312 312 312 313 313 316 316 319 320 320 320 319 322 319 320 320 322 323 326 328 329 327 328 327 327 327
302 301 304 300 301 302 302 304 305 305 304 304 305 308 308 310 310 310 310 311 310 311 310 310 318 317 317 319 322 322 321 323 323 321 323 322 323 323 325 329 329 329 327 326 327
301 302 302 303 302 302 302 303 305 305 305 306 305 306 307 309 310 312 310 309 310 310 309 309 316 318 318 318 319 320 323 324 324 322 322 323 324 323 325 329 328 327 326 325 326
301 301 301 302 301 301 302 305 306 306 306 306 307 306 305 308 309 309 310 308 309 309 309 309 316 319 320 320 319 319 322 324 323 324 323 323 322 321 322 327 328 327 327 326 326
Wind_Speed
24 25 26 27 27 27 26 25 24 24 23 22 20 20 21 24 23 22 31 27 19 18 16 16 24 20 16 15 21 12 2 8 7 7 10 29 3 28 17 7 9 12 14 18 18
21 23 25 27 27 28 28 28 27 25 25 25 23 21 21 24 27 32 29 27 23 20 24 25 25 22 20 10 11 10 6 12 14 9 10 23 14 23 9 15 16 18 15 15 24
23 22 22 24 25 26 28 28 28 28 26 25 25 23 20 20 25 34 19 16 19 26 28 28 21 22 22 19 15 12 16 19 24 25 27 25 26 29 11 6 18 18 14 22 27
19 20 22 24 25 25 25 27 27 27 26 26 26 25 20 17 8 5 13 6 3 21 28 25 26 19 8 13 39 6 21 30 34 33 29 22 33 26 18 18 27 25 21 25 30
19 19 19 21 23 25 26 26 26 27 27 26 26 25 22 18 27 11 15 8 5 9 32 31 26 28 15 13 17 13 25 31 31 30 35 36 25 25 21 27 29 21 19 27 29
19 20 20 21 22 22 23 25 25 25 24 24 25 25 22 19 37 36 33 31 20 13 20 32 26 30 8 25 17 18 23 28 29 32 35 27 28 20 26 26 28 29 26 26 29
20 20 21 22 21 21 22 24 24 21 22 20 20 20 27 43 26 20 25 37 37 31 26 27 36 16 15 9 30 24 21 20 22 22 21 28 19 14 30 30 30 26 24 25 28
22 21 21 23 24 24 23 22 24 23 18 16 16 18 19 33 30 40 33 26 25 22 29 24 23 33 32 16 15 6 4 9 11 16 29 12 24 17 33 30 32 28 27 28 29
22 23 22 23 24 26 25 22 21 25 15 14 15 15 18 16 29 38 39 39 28 28 26 24 21 24 10 16 11 5 12 17 13 13 13 9 21 19 33 30 29 32 29 29 33
23 23 23 22 23 25 27 28 22 16 14 10 12 6 21 18 25 27 29 39 35 30 26 25 15 7 6 5 13 11 11 5 17 19 8 13 17 20 33 28 30 34 31 30 28
25 25 24 23 23 22 24 24 5 4 10 16 16 22 3 6 15 15 17 31 26 17 10 25 11 16 26 22 13 8 7 9 20 24 5 12 15 23 20 18 21 28 32 34 22
24 24 26 23 21 17 15 8 11 11 14 25 42 36 38 21 10 19 13 19 19 18 15 7 25 24 17 16 13 12 14 17 20 23 6 17 19 22 12 7 21 29 34 32 19
25 22 22 23 24 11 12 12 15 25 8 17 31 35 39 31 17 33 19 22 9 17 21 22 8 19 17 15 13 16 18 17 18 21 16 11 16 9 6 6 13 23 26 20 22
23 23 20 20 18 9 15 8 14 5 4 7 10 15 30 24 14 44 21 18 9 24 22 18 21 16 21 18 17 19 17 19 16 12 8 6 7 6 6 5 5 13 15 17 28
22 21 20 15 20 19 13 14 12 8 4 5 5 7 18 31 16 26 46 28 20 15 18 17 21 24 21 26 21 18 18 18 20 14 9 22 4 8 6 6 9 10 10 20 31
22 20 17 18 18 11 12 10 5 2 8 7 7 5 4 27 18 7 35 27 22 17 18 26 9 21 24 18 22 23 11 12 12 9 11 16 7 14 5 8 5 2 18 31 33
23 20 16 17 19 9 12 9 1 6 8 1 12 21 18 14 20 8 21 24 13 17 23 14 24 16 15 21 20 15 10 4 3 4 11 10 7 11 6 8 8 8 20 25 30
25 21 18 18 13 9 5 1 9 7 15 19 21 22 6 13 7 22 9 23 23 16 12 16 12 27 21 20 17 20 14 8 7 5 4 6 6 9 9 5 13 18 24 28 30
24 19 20 7 8 9 2 6 4 3 9 17 20 10 12 23 14 5 22 24 23 21 12 16 16 8 21 19 19 13 15 21 5 4 2 4 6 9 5 6 6 16 26 30 31
21 18 9 1 8 11 2 6 4 11 18 16 11 10 18 20 13 16 3 14 18 23 8 4 5 16 16 15 24 26 5 7 2 10 6 4 4 5 1 7 6 8 16 28 30
13 9 5 3 11 4 3 5 7 14 17 9 13 15 13 15 11 8 8 7 13 12 21 9 3 5 16 21 27 11 10 6 5 6 8 3 7 8 13 10 15 13 26 33 34
9 4 7 8 2 1 4 2 8 16 22 15 9 12 10 6 10 8 8 10 28 21 9 25 4 11 22 5 16 14 14 10 9 5 2 6 10 3 12 13 15 16 28 33 35
13 6 6 7 1 2 4 7 9 16 15 6 7 7 9 7 4 7 11 17 22 19 9 6 16 9 8 2 8 16 14 8 5 5 8 7 7 3 5 12 19 21 25 33 35
6 3 4 4 1 3 3 7 4 8 10 11 3 4 8 11 10 8 14 12 35 21 20 11 7 28 15 11 5 6 18 14 8 5 6 9 5 3 2 13 9 19 31 36 38
3 3 4 3 3 6 4 5 11 7 9 14 2 5 7 4 9 15 13 19 20 11 15 8 13 21 31 18 5 8 18 19 17 13 11 8 11 9 10 16 19 30 30 32 36
5 4 6 9 12 4 4 4 14 11 7 9 7 10 12 7 12 12 9 12 11 9 15 9 6 16 23 30 27 18 15 22 16 8 8 12 9 8 19 18 15 25 29 31 37
7 9 9 6 4 3 2 8 10 13 12 9 12 5 10 12 12 16 16 15 21 17 17 4 5 3 21 19 20 20 21 19 19 15 13 11 7 8 8 14 20 25 33 36 39
Wind_Direction
278 278 278 279 282 282 280 279 279 281 284 280 280 280 286 282 281 273 263 256 260 248 248 232 218 211 212 221 212 203 146 255 237 227 253 282 358 302 304 316 283 246 240 254 199
279 276 276 278 277 276 277 278 278 275 275 278 277 277 279 284 287 276 270 276 260 249 236 223 214 204 212 229 213 188 188 236 235 255 276 287 286 292 297 316 312 314 274 226 188
294 288 281 274 275 277 278 277 277 276 273 273 272 272 274 282 292 277 287 262 250 223 226 225 222 214 221 226 218 206 226 242 266 263 269 271 284 284 280 293 295 289 206 183 188
304 299 295 290 284 277 276 275 274 275 275 273 270 268 265 263 233 176 183 168 261 219 213 220 218 213 207 220 236 266 242 243 253 264 269 268 277 277 260 279 294 293 240 198 190
306 303 298 295 291 286 280 274 273 271 270 273 271 267 263 241 233 199 211 247 304 209 208 217 214 222 220 239 243 234 241 246 254 263 266 270 264 262 257 278 283 287 223 204 207
337 321 310 301 294 288 284 283 272 269 271 269 268 266 261 246 252 248 237 254 254 255 228 219 221 223 273 237 235 238 249 253 259 262 266 265 270 258 258 280 277 278 226 209 211
332 334 330 325 317 303 291 282 280 269 265 268 270 274 258 248 247 247 244 239 239 247 236 236 234 219 230 270 256 257 257 263 260 254 258 270 269 250 269 270 271 243 224 213 215
329 328 326 327 323 316 312 297 276 269 270 265 275 271 260 262 264 251 234 231 227 224 228 238 252 232 243 261 296 301 268 253 245 259 262 240 269 275 270 264 254 240 225 227 220
328 329 327 325 322 322 315 309 300 272 260 253 263 248 276 258 247 253 239 232 224 224 236 221 237 218 229 228 266 229 257 260 278 245 260 220 267 269 276 253 238 241 246 241 245
322 319 321 323 323 324 319 317 307 254 243 227 235 277 250 241 247 249 244 225 226 220 229 222 214 183 227 155 218 218 237 225 255 257 257 267 265 270 267 251 229 229 238 248 248
324 321 316 313 317 327 324 335 355 358 224 209 206 205 117 268 236 246 240 213 209 229 200 199 209 213 217 218 226 238 236 247 262 268 280 269 272 271 262 246 222 222 235 245 250
320 318 318 313 313 321 318 329 14 327 291 261 251 243 243 244 304 237 212 175 185 212 202 198 221 218 223 224 218 230 242 248 271 269 260 274 281 286 266 229 221 221 234 244 226
323 319 314 311 313 308 291 303 341 332 268 276 244 240 231 250 239 256 206 191 192 197 207 209 229 203 210 221 225 228 231 245 244 277 278 277 280 265 296 236 231 239 248 248 211
322 319 317 310 309 288 300 300 310 7 275 268 212 245 211 223 255 236 219 197 207 205 208 233 220 202 211 221 214 235 227 241 251 255 257 141 281 275 242 267 257 282 292 243 193
322 320 313 299 293 294 310 280 323 150 300 228 215 211 203 186 137 212 219 210 204 180 187 211 196 217 224 217 216 230 224 235 246 248 261 280 292 267 273 275 271 289 252 195 186
322 317 310 290 278 298 306 293 343 89 251 302 85 343 189 208 214 159 190 199 209 204 211 218 198 210 221 221 220 233 241 240 257 244 254 244 214 264 222 228 254 231 194 185 186
320 316 300 283 270 303 296 320 227 215 311 195 344 340 308 202 220 229 185 189 191 188 216 211 223 237 203 216 230 216 203 250 288 197 240 214 195 240 226 229 223 197 202 190 187
321 315 302 277 270 273 346 248 236 239 262 312 347 328 325 26 274 231 190 197 208 200 180 209 224 211 217 211 212 221 212 202 184 221 234 208 226 257 224 237 231 193 189 183 181
325 322 308 302 244 174 200 224 235 315 306 348 346 336 347 358 343 239 223 211 202 203 185 195 227 243 206 211 206 222 211 224 215 320 130 210 282 319 262 139 132 136 160 172 182
334 328 343 338 170 183 154 252 300 335 324 327 340 350 342 337 336 350 241 228 224 211 196 231 219 232 206 198 231 220 141 229 305 205 213 265 242 227 161 155 151 157 158 171 179
346 326 351 162 161 161 223 243 303 281 311 331 325 315 329 322 318 312 292 30 10 236 218 222 126 306 208 203 209 201 200 198 178 166 192 203 262 195 200 180 172 173 169 176 180
347 325 11 178 79 159 242 216 276 283 296 291 277 306 315 307 297 293 269 285 358 349 266 212 173 239 241 293 202 210 204 182 215 231 167 156 257 222 213 173 168 172 176 182 181
328 281 347 245 183 236 250 262 285 278 275 271 295 299 289 276 273 300 303 329 329 344 350 252 218 249 322 229 241 203 201 179 143 123 188 161 256 358 129 151 172 162 178 179 178
329 325 351 261 293 289 263 276 270 297 309 289 248 289 291 262 248 270 296 315 335 314 316 310 228 208 221 221 167 202 201 188 149 148 164 196 198 228 205 155 171 171 175 178 179
337 282 354 310 314 292 282 269 288 293 253 278 240 221 271 291 283 264 295 318 318 295 350 3 222 206 222 234 248 220 213 193 189 182 174 201 192 218 191 176 181 176 172 168 175
326 328 324 291 286 294 289 317 300 308 273 299 235 267 289 259 279 281 275 309 293 307 348 336 292 203 221 226 239 249 229 197 193 177 142 179 208 202 191 182 152 172 168 174 180
317 315 314 287 303 332 254 326 297 307 276 281 305 288 282 264 231 235 225 249 258 274 294 273 327 291 223 219 232 236 235 209 184 177 152 186 201 169 149 175 179 175 178 182 185